Hauptseite
METAR-TAF:

METAR-TAF

Flughäfen :

Landsberg, Deutschland

Fliegerhorst Landsberg/Lech

Breite: 48-04N, Länge: 010-54E, Höhe: 623 m

Beobachtung

Neuester Wetterbericht von vor 26 Minuten, um 13:20 UTC
Wind 16 kt aus Ost/Nordost
Temperatur -2°C
Luftfeuchtigkeit 46%
Luftdruck 1015 hPa
Sichtweite 10 km oder mehr

METAR: ETSA 241320Z AUTO 06016KT 9999 // ////// M02/M12 Q1015 ///

Zeit: 14:46 (13:46 UTC)


TAF: fehlend

Wetterbeobachtungen und Prognosen von mehr als 4000 Flughäfen (METAR und TAF Bericht).

Die verfügbaren Stationen werden durch gelbe und rote Markierungen auf der Karte dargestellt.

Führen Sie die Maus auf sie, um den Namen der Station zu sehen.

Darauf klicken, um die Beobachtung von Wetterbeobachtungen und Prognosen zu sehen.

Um die Karte zu ändern : klicken Sie auf den grünen Tasten mit einem schwarzen Kreuz Zum Vergrößern, auf den grünen Button mit einem Gedankenstrich zu verkleinern, oder auf die grünen Pfeile für benachbarte Karten.


METAR-TAF: